Location: Olmeneta
(45.2333°N, 10.0167°E)
Time: 17:18:32
(UTC+00:00)

Gbstr 26 Del rocket - Pass Details

Date: 03 March 2021
Orbit: 492 x 1264 km, 51.8° (Epoch: 11 April)

Event Time Altitude Azimuth Distance (km) Brightness Sun altitude
Rises 18:07:44 0° 274° (W) 2,756 8.7 -11.0°
Reaches altitude 10° 18:09:54 10° 282° (WNW) 1,940 7.1 -11.3°
Maximum altitude 18:14:06 41° 353° (N) 986 4.2 -12.1°
Enters shadow 18:18:33 13° 61° (ENE) 2,132 5.3 -12.9°
